SCP
0 0 0 0 0 -0 0 0 0 0 0 0 0 0 0 0 0 0 0 0 0 -0 0 0 -0 0 -0 0 -0 0 0 -0 0 -0 -0 0 0 -0 -0 -0 0 0 0 0
0 0 0 0 0 0 0 0 0 0 0 0 0 0 0 0 0 0 0 0 -0 0 -0 0 0 0 -0 -0 -0 0 -0 0 -0 0 -0 0 0 0 -0 -0 -0 -0 -0 0
0 0 0 0 0 0 0 0 0 0 0 0 0 0 0 0 0 0 0 -0 -0 -0 -0 0 0 0 0 0 0 0 0 -0 -0 -0 0 0 0 -0 0 -0 -0 -0 -0 -0
0 0 0 0 0 0 0 0 0 0 0 0 0 0 0 0 0 0 0 -0 -0 -0 -0 -0 -0 0 0 0 -0 -0 0 0 -0 0 0 0 0 -0 -0 0 0 0 0 -0
0 0 0 0 0 0 0 0 0 0 0 0 0 0 0 0 0 -0 0 -0 -0 -0 0 0 -0 -0 0 0 0 0 0 0 -0 0 0 0 0 0 0 0 0 -0 -0 -0
0 0 0 0 0 0 0 0 0 0 0 0 0 0 0 0 0 -0 0 0 -0 -0 -0 0 -0 -0 -0 0 0 0 0 0 0 -0 -0 -0 0 0 0 0 -0 -0 -0 -0
0 0 0 0 0 0 0 0 0 0 0 0 0 0 0 -0 -0 -0 -0 -0 -0 -0 -0 -0 0 -0 -0 0 0 0 0 0 -0 0 0 0 -0 -0 0 0 0 0 -0 -0
0 0 0 0 0 0 0 0 0 0 0 0 0 0 0 -0 -0 -0 -0 -0 -0 0 -0 0 0 0 0 0 0 0 0 0 0 -0 -0 0 -0 -0 0 0 0 -0 -0 0
0 0 0 0 0 0 0 0 0 0 0 0 0 0 0 0 0 -0 -0 0 -0 -0 0 0 -0 0 0 0 0 0 0 0 0 0 0 0 0 0 -0 0 -0 0 0 0
0 0 0 0 0 0 0 0 0 0 0 0 0 0 0 0 0 0 -0 0 0 0 -0 -0 0 -0 0 0 0 0 0 0 0 0 0 0 -0 -0 0 0 -0 0 0 0
0 0 0 0 0 0 0 0 0 0 0 0 0 0 0 0 0 0 -0 0 0 -0 -0 -0 -0 0 0 0 0 0 0 0 0 0 0 0 0 -0 0 0 -0 0 0 0
0 0 0 0 0 0 0 0 0 0 0 0 0 0 0 -0 -0 0 0 0 -0 0 0 0 -0 -0 0 0 0 0 0 0 0 0 0 0 -0 -0 -0 -0 -0 0 0 0
0 0 0 0 0 0 0 0 0 0 0 0 0 0 0 0 0 -0 0 0 0 0 0 0 0 -0 0 0 0 0 0 0 0 0 0 -0 -0 -0 -0 0 0 0 0 0
0 0 0 0 0 0 0 0 0 0 0 0 0 0 0 0 0 0 -0 0 0 0 0 0 -0 0 0 0 0 0 0 0 0 -0 0 -0 0 -0 0 0 0 0 0 0
0 0 0 0 0 0 0 0 0 0 0 0 0 0 0 0 0 -0 -0 0 -0 0 0 0 0 0 0 0 0 0 0 0 -0 -0 0 0 -0 -0 0 0 0 0 0 0
0 0 0 0 0 0 0 0 0 0 0 0 0 0 0 0 0 0 0 0 0 0 0 0 0 0 0 0 0 0 0 0 -0 0 -0 0 -0 0 0 0 0 0 0 0
0 0 0 0 0 0 0 0 0 0 0 0 0 0 0 0 0 0 0 0 0 0 0 0 0 -0 0 0 0 0 0 0 0 0 0 0 0 0 0 0 0 0 0 0
0 0 0 0 0 0 0 0 0 0 0 0 0 0 0 0 0 0 0 0 0 0 0 0 0 0 0 -0 0 0 -0 -0 0 0 0 0 0 0 0 0 0 0 0 0
0 0 0 0 0 0 0 0 0 0 0 0 0 0 0 0 0 0 0 0 0 0 0 0 0 -0 -0 -0 -0 0 -0 -0 0 0 0 0 0 0 0 0 0 0 0 0
0 0 0 0 0 0 0 0 0 0 0 0 0 0 -0 0 0 0 0 0 0 0 0 0 0 -0 -0 -0 0 0 0 -0 -0 0 0 0 0 0 0 0 0 0 0 0
0 0 0 0 0 0 0 0 0 0 0 0 0 0 0 0 0 0 0 0 0 0 0 0 0 0 -0 0 0 0 0 -0 -0 -0 -0 0 0 0 0 0 0 0 0 0
0 0 0 0 0 0 0 0 0 0 0 0 0 0 0 0 0 0 0 0 -0 0 0 -0 -0 -0 0 0 0 0 0 0 -0 -0 -0 -0 0 0 0 0 0 0 0 0
0 0 0 0 0 0 0 0 0 0 0 0 0 -0 0 0 0 0 0 0 0 -0 -0 0 0 0 0 0 0 0 0 -0 -0 0 -0 -0 -0 0 0 0 0 0 0 0
0 0 0 0 0 0 0 0 0 -0 -0 0 0 -0 0 0 0 0 0 0 0 0 -0 0 0 -0 0 0 0 0 0 -0 0 0 0 0 -0 -0 0 -0 0 0 0 0
0 0 0 0 0 0 0 0 0 0 0 0 0 0 -0 -0 -0 0 0 0 0 0 0 0 0 0 0 0 -0 0 0 -0 0 -0 0 0 0 0 0 0 0 0 0 0
0 0 0 0 0 0 0 0 0 0 0 0 0 0 0 -0 -0 -0 -0 0 0 0 0 0 0 0 -0 0 -0 -0 0 0 -0 -0 0 0 0 0 -0 0 0 0 0 0
0 0 0 0 0 0 0 0 0 0 0 0 0 0 0 0 0 0 0 0 0 0 0 0 0 0 0 -0 -0 -0 -0 0 -0 -0 0 0 0 0 0 0 0 0 -0 0
Wind_Speed_500mb
55 58 64 71 72 72 45 14 8 2 11 15 11 13 12 17 17 18 15 20 29 28 31 33 37 40 29 18 28 30 36 28 33 44 45 27 25 26 37 9 24 37 22 34
54 60 64 66 60 54 45 24 15 6 7 6 14 24 25 22 16 21 13 17 31 28 32 26 27 36 38 33 26 14 22 13 19 33 32 31 14 18 26 16 19 29 16 18
55 61 63 57 52 38 25 15 8 8 4 7 14 25 22 19 14 21 17 19 31 30 32 31 29 42 39 24 30 41 27 29 36 34 40 15 10 38 27 21 11 27 36 33
52 60 57 54 49 26 14 7 9 9 9 16 20 23 28 22 19 10 15 20 22 25 28 40 45 41 46 35 43 40 8 21 38 49 55 47 34 40 25 34 39 42 41 25
55 55 51 49 41 24 10 17 14 25 34 20 13 20 21 23 19 32 35 30 32 29 32 38 56 53 47 30 10 11 20 16 29 43 46 51 46 44 35 37 50 49 45 41
55 50 44 40 34 23 11 16 14 11 20 12 14 11 22 27 36 27 27 30 34 40 41 50 66 70 73 45 25 12 7 12 17 37 40 43 39 43 39 39 46 44 43 41
51 47 39 31 23 14 16 18 19 7 11 17 20 28 30 28 31 36 55 49 42 42 55 68 63 58 49 27 15 15 9 24 19 18 25 18 30 27 21 21 29 43 45 40
51 46 37 30 20 16 14 18 14 7 9 19 36 14 30 41 34 35 40 41 27 42 45 28 24 7 2 2 8 13 16 6 9 10 19 31 37 7 20 20 39 38 41 39
46 41 35 31 24 19 14 18 23 14 13 14 32 44 33 19 23 26 21 39 36 29 16 9 12 9 13 10 17 10 10 15 9 8 10 9 10 16 46 23 29 31 31 38
44 38 34 31 26 18 15 20 26 18 19 33 16 21 25 28 16 14 34 28 17 14 9 7 7 11 17 10 14 13 3 4 19 24 16 12 16 23 23 21 2 15 17 12
41 38 34 30 27 23 18 18 23 29 33 56 55 38 33 32 25 10 25 23 3 18 7 7 10 11 10 6 23 5 6 9 3 8 13 10 18 32 20 27 43 36 35 19
42 38 35 30 28 26 19 28 15 25 35 50 60 69 61 62 52 41 11 17 22 10 7 8 10 17 9 17 9 7 3 5 5 5 8 24 41 42 72 82 70 59 43 34
45 41 36 32 28 26 24 26 25 32 35 53 36 22 20 24 34 38 28 26 17 10 4 5 5 11 8 7 12 8 9 6 5 8 8 23 32 37 53 26 28 38 40 42
47 44 37 34 31 30 29 27 21 23 17 14 8 16 26 25 27 32 45 38 9 9 8 7 7 7 16 14 19 15 12 11 18 21 9 34 14 44 53 45 23 9 21 31
46 44 40 36 38 40 36 34 35 34 24 13 32 58 13 10 23 33 37 46 42 30 6 9 6 10 13 17 16 5 15 19 15 8 42 22 25 42 47 37 32 25 22 24
44 43 42 43 40 31 14 10 11 16 39 10 8 22 22 16 18 20 25 30 28 24 9 11 11 28 12 8 8 12 30 30 27 13 30 29 29 31 40 34 30 30 27 32
43 43 46 39 30 21 16 7 5 7 18 9 12 12 11 16 17 12 13 20 17 17 11 13 14 23 11 6 7 22 29 22 29 32 30 28 35 31 38 27 32 33 31 29
43 44 41 30 15 14 22 24 34 28 15 10 7 10 17 12 14 12 19 15 22 20 11 10 12 11 8 6 16 15 20 26 26 28 32 23 34 33 35 38 33 35 38 34
42 38 20 8 5 6 9 14 17 24 20 8 8 7 8 7 19 7 15 15 8 13 7 9 9 3 7 14 10 20 27 26 30 29 33 30 38 41 40 34 36 36 40 40
31 17 8 8 3 13 16 9 6 15 14 12 9 28 19 32 22 12 9 14 8 7 12 6 7 7 17 1 14 17 21 24 27 27 34 37 41 42 39 36 32 33 37 34
23 13 9 16 24 8 12 8 13 12 8 14 16 24 19 14 11 11 12 4 6 6 6 6 6 2 3 12 11 19 21 23 26 25 24 26 27 38 38 34 32 36 34 33
26 25 26 15 6 9 5 7 7 11 6 5 9 3 8 7 6 10 8 7 7 5 1 5 3 2 17 13 16 16 20 22 25 24 25 24 31 36 35 32 32 34 35 30
7 4 6 5 3 4 9 6 3 8 15 17 19 7 10 8 6 10 7 7 7 13 5 3 5 10 12 16 16 16 17 21 22 24 23 24 32 35 37 34 32 28 31 35
7 7 6 8 4 7 6 13 14 18 23 32 29 19 10 2 2 2 6 8 7 5 5 4 11 18 4 15 13 15 16 19 19 23 22 24 29 31 33 35 34 33 34 31
7 7 7 8 12 26 10 14 13 20 24 30 34 26 22 8 7 5 10 7 8 6 2 7 17 10 3 13 17 10 14 16 19 21 20 22 22 25 29 31 34 36 35 30
5 7 12 22 26 32 39 33 29 25 36 31 25 12 8 12 8 10 12 4 3 4 6 25 23 14 2 12 11 14 10 12 13 19 19 21 20 22 26 28 32 35 34 37
5 8 18 26 26 32 37 39 36 34 35 10 9 11 4 14 2 5 7 7 10 24 18 19 28 22 6 10 17 14 13 14 11 14 16 18 22 20 22 26 27 29 31 32
Wind_Direction_500mb
341 345 345 346 346 344 357 340 273 358 341 264 213 264 3 309 296 292 283 281 289 296 304 307 295 292 284 286 302 299 297 304 277 276 287 228 271 200 218 218 262 242 282 271
343 345 344 346 347 348 343 316 292 315 356 302 329 308 315 291 284 304 301 296 300 308 297 300 288 292 305 310 306 300 327 271 287 279 256 227 266 234 230 258 262 264 266 269
344 343 343 346 349 347 342 311 301 123 351 282 304 332 317 329 320 298 326 301 301 286 286 285 281 277 287 347 315 315 318 273 264 270 293 96 303 283 268 234 266 271 259 266
340 343 346 349 350 356 16 329 34 335 312 330 326 306 293 296 300 311 283 284 272 306 304 304 295 300 305 291 268 254 254 260 268 270 275 275 265 263 257 267 261 249 270 281
340 344 348 350 351 8 339 342 350 341 297 308 346 300 305 317 326 323 304 285 311 320 288 278 287 291 295 299 286 251 211 244 257 266 269 273 269 265 254 259 271 274 275 269
338 342 346 351 356 18 21 347 314 311 308 290 291 313 322 323 319 304 315 316 301 293 298 303 296 294 285 280 253 204 233 221 239 257 258 257 262 248 246 248 261 264 267 273
335 336 340 341 349 356 337 323 334 291 288 324 315 313 296 296 304 291 296 291 285 297 306 308 291 272 265 290 315 153 213 224 240 269 285 248 242 253 247 278 275 282 260 261
330 329 332 335 325 318 321 303 307 282 286 291 294 333 312 306 301 294 293 286 314 312 315 297 322 11 349 154 266 184 215 237 252 243 236 273 288 355 233 260 252 254 258 270
334 332 330 327 319 305 315 301 278 277 299 232 319 309 302 312 311 299 306 323 310 294 288 310 314 319 345 325 327 112 209 237 285 259 254 260 53 33 341 331 271 244 291 255
335 334 332 325 318 299 306 296 286 256 262 281 267 300 304 306 286 279 299 329 319 267 295 280 276 320 331 325 314 326 263 218 229 240 252 264 355 9 309 265 304 345 18 333
333 334 330 323 317 306 284 279 272 268 271 283 280 277 278 275 256 255 312 314 309 287 288 325 340 319 329 289 308 311 292 307 303 239 241 254 355 315 242 284 319 315 309 329
329 331 331 328 320 310 282 291 280 271 268 265 282 282 270 253 251 255 239 279 319 299 316 24 312 310 300 321 296 130 277 231 279 241 268 288 291 283 273 272 272 270 280 301
325 325 324 324 320 314 299 282 286 285 287 299 272 281 267 246 242 237 236 259 225 232 219 302 286 278 313 285 273 291 252 220 219 278 281 271 294 309 347 351 259 235 256 287
323 320 320 317 308 301 293 280 272 263 277 283 326 304 277 264 241 226 225 233 254 329 310 265 245 261 286 287 291 318 295 323 312 307 325 321 5 2 351 2 22 310 292 294
322 320 320 314 307 301 294 279 263 241 225 304 302 305 291 254 222 228 229 236 249 269 283 244 244 252 267 279 298 258 13 19 17 328 345 335 352 347 352 356 7 3 348 345
321 318 316 313 305 300 291 304 251 233 222 274 289 306 295 224 214 219 221 229 231 223 239 247 248 250 265 320 291 345 29 28 34 348 338 355 359 351 353 352 10 20 19 13
320 317 314 311 297 272 211 292 194 200 210 251 278 271 254 220 227 223 198 207 210 211 232 231 255 281 218 257 273 24 19 31 12 18 8 360 1 352 3 25 19 40 44 43
320 319 314 307 286 258 244 249 251 252 208 242 267 271 269 196 214 213 193 193 206 217 247 254 262 243 215 269 288 30 37 23 22 22 25 11 355 13 24 19 19 38 41 42
326 321 321 302 273 243 238 245 242 250 218 256 237 267 293 262 292 216 189 203 215 211 226 245 257 255 230 261 28 37 40 23 24 23 31 17 14 18 30 24 24 31 32 45
337 359 280 213 257 279 294 292 225 198 209 243 258 260 271 296 303 285 193 191 225 221 213 186 269 261 249 219 66 56 56 34 36 26 37 17 18 17 32 38 33 40 37 46
355 325 285 292 302 290 234 244 193 179 231 219 240 246 258 267 278 298 282 260 237 249 162 239 219 219 183 130 104 83 71 49 52 49 50 38 21 24 31 39 46 37 47 38
314 300 300 315 336 234 272 264 247 217 257 177 311 34 293 283 255 275 280 274 281 285 118 241 319 68 129 136 110 92 93 69 59 52 54 41 37 37 43 44 46 40 53 47
310 300 283 297 223 291 252 255 242 332 10 359 337 332 284 200 262 271 305 266 260 322 265 232 79 90 135 132 127 113 98 89 71 61 54 50 45 42 43 49 53 58 53 64
283 298 279 257 207 239 320 346 335 331 317 324 310 297 288 8 312 296 246 256 274 250 218 93 76 69 176 136 139 128 112 100 83 71 61 59 52 50 46 48 53 59 61 59
276 285 256 248 338 313 306 300 307 330 324 318 306 289 233 196 236 217 265 220 221 183 110 21 56 360 214 152 151 163 123 123 110 89 77 70 65 56 57 54 55 58 62 64
259 248 280 312 325 313 310 324 325 346 321 324 302 265 263 223 209 197 228 196 97 60 43 7 25 24 175 168 148 169 153 120 108 101 97 90 87 81 70 61 58 58 58 60
270 281 291 302 313 314 313 314 305 309 311 325 298 291 340 303 259 282 13 41 10 355 14 27 17 8 354 182 183 166 177 142 136 118 109 101 97 94 87 79 73 72 72 72
Wind_Speed_850mb
55 58 64 71 72 72 45 14 8 2 11 15 11 13 12 17 17 18 15 20 29 28 31 33 37 40 29 18 28 30 36 28 33 44 45 27 25 26 37 9 24 37 22 34
54 60 64 66 60 54 45 24 15 6 7 6 14 24 25 22 16 21 13 17 31 28 32 26 27 36 38 33 26 14 22 13 19 33 32 31 14 18 26 16 19 29 16 18
55 61 63 57 52 38 25 15 8 8 4 7 14 25 22 19 14 21 17 19 31 30 32 31 29 42 39 24 30 41 27 29 36 34 40 15 10 38 27 21 11 27 36 33
52 60 57 54 49 26 14 7 9 9 9 16 20 23 28 22 19 10 15 20 22 25 28 40 45 41 46 35 43 40 8 21 38 49 55 47 34 40 25 34 39 42 41 25
55 55 51 49 41 24 10 17 14 25 34 20 13 20 21 23 19 32 35 30 32 29 32 38 56 53 47 30 10 11 20 16 29 43 46 51 46 44 35 37 50 49 45 41
55 50 44 40 34 23 11 16 14 11 20 12 14 11 22 27 36 27 27 30 34 40 41 50 66 70 73 45 25 12 7 12 17 37 40 43 39 43 39 39 46 44 43 41
51 47 39 31 23 14 16 18 19 7 11 17 20 28 30 28 31 36 55 49 42 42 55 68 63 58 49 27 15 15 9 24 19 18 25 18 30 27 21 21 29 43 45 40
51 46 37 30 20 16 14 18 14 7 9 19 36 14 30 41 34 35 40 41 27 42 45 28 24 7 2 2 8 13 16 6 9 10 19 31 37 7 20 20 39 38 41 39
46 41 35 31 24 19 14 18 23 14 13 14 32 44 33 19 23 26 21 39 36 29 16 9 12 9 13 10 17 10 10 15 9 8 10 9 10 16 46 23 29 31 31 38
44 38 34 31 26 18 15 20 26 18 19 33 16 21 25 28 16 14 34 28 17 14 9 7 7 11 17 10 14 13 3 4 19 24 16 12 16 23 23 21 2 15 17 12
41 38 34 30 27 23 18 18 23 29 33 56 55 38 33 32 25 10 25 23 3 18 7 7 10 11 10 6 23 5 6 9 3 8 13 10 18 32 20 27 43 36 35 19
42 38 35 30 28 26 19 28 15 25 35 50 60 69 61 62 52 41 11 17 22 10 7 8 10 17 9 17 9 7 3 5 5 5 8 24 41 42 72 82 70 59 43 34
45 41 36 32 28 26 24 26 25 32 35 53 36 22 20 24 34 38 28 26 17 10 4 5 5 11 8 7 12 8 9 6 5 8 8 23 32 37 53 26 28 38 40 42
47 44 37 34 31 30 29 27 21 23 17 14 8 16 26 25 27 32 45 38 9 9 8 7 7 7 16 14 19 15 12 11 18 21 9 34 14 44 53 45 23 9 21 31
46 44 40 36 38 40 36 34 35 34 24 13 32 58 13 10 23 33 37 46 42 30 6 9 6 10 13 17 16 5 15 19 15 8 42 22 25 42 47 37 32 25 22 24
44 43 42 43 40 31 14 10 11 16 39 10 8 22 22 16 18 20 25 30 28 24 9 11 11 28 12 8 8 12 30 30 27 13 30 29 29 31 40 34 30 30 27 32
43 43 46 39 30 21 16 7 5 7 18 9 12 12 11 16 17 12 13 20 17 17 11 13 14 23 11 6 7 22 29 22 29 32 30 28 35 31 38 27 32 33 31 29
43 44 41 30 15 14 22 24 34 28 15 10 7 10 17 12 14 12 19 15 22 20 11 10 12 11 8 6 16 15 20 26 26 28 32 23 34 33 35 38 33 35 38 34
42 38 20 8 5 6 9 14 17 24 20 8 8 7 8 7 19 7 15 15 8 13 7 9 9 3 7 14 10 20 27 26 30 29 33 30 38 41 40 34 36 36 40 40
31 17 8 8 3 13 16 9 6 15 14 12 9 28 19 32 22 12 9 14 8 7 12 6 7 7 17 1 14 17 21 24 27 27 34 37 41 42 39 36 32 33 37 34
23 13 9 16 24 8 12 8 13 12 8 14 16 24 19 14 11 11 12 4 6 6 6 6 6 2 3 12 11 19 21 23 26 25 24 26 27 38 38 34 32 36 34 33
26 25 26 15 6 9 5 7 7 11 6 5 9 3 8 7 6 10 8 7 7 5 1 5 3 2 17 13 16 16 20 22 25 24 25 24 31 36 35 32 32 34 35 30
7 4 6 5 3 4 9 6 3 8 15 17 19 7 10 8 6 10 7 7 7 13 5 3 5 10 12 16 16 16 17 21 22 24 23 24 32 35 37 34 32 28 31 35
7 7 6 8 4 7 6 13 14 18 23 32 29 19 10 2 2 2 6 8 7 5 5 4 11 18 4 15 13 15 16 19 19 23 22 24 29 31 33 35 34 33 34 31
7 7 7 8 12 26 10 14 13 20 24 30 34 26 22 8 7 5 10 7 8 6 2 7 17 10 3 13 17 10 14 16 19 21 20 22 22 25 29 31 34 36 35 30
5 7 12 22 26 32 39 33 29 25 36 31 25 12 8 12 8 10 12 4 3 4 6 25 23 14 2 12 11 14 10 12 13 19 19 21 20 22 26 28 32 35 34 37
5 8 18 26 26 32 37 39 36 34 35 10 9 11 4 14 2 5 7 7 10 24 18 19 28 22 6 10 17 14 13 14 11 14 16 18 22 20 22 26 27 29 31 32
Wind_Direction_850mb
341 345 345 346 346 344 357 340 273 358 341 264 213 264 3 309 296 292 283 281 289 296 304 307 295 292 284 286 302 299 297 304 277 276 287 228 271 200 218 218 262 242 282 271
343 345 344 346 347 348 343 316 292 315 356 302 329 308 315 291 284 304 301 296 300 308 297 300 288 292 305 310 306 300 327 271 287 279 256 227 266 234 230 258 262 264 266 269
344 343 343 346 349 347 342 311 301 123 351 282 304 332 317 329 320 298 326 301 301 286 286 285 281 277 287 347 315 315 318 273 264 270 293 96 303 283 268 234 266 271 259 266
340 343 346 349 350 356 16 329 34 335 312 330 326 306 293 296 300 311 283 284 272 306 304 304 295 300 305 291 268 254 254 260 268 270 275 275 265 263 257 267 261 249 270 281
340 344 348 350 351 8 339 342 350 341 297 308 346 300 305 317 326 323 304 285 311 320 288 278 287 291 295 299 286 251 211 244 257 266 269 273 269 265 254 259 271 274 275 269
338 342 346 351 356 18 21 347 314 311 308 290 291 313 322 323 319 304 315 316 301 293 298 303 296 294 285 280 253 204 233 221 239 257 258 257 262 248 246 248 261 264 267 273
335 336 340 341 349 356 337 323 334 291 288 324 315 313 296 296 304 291 296 291 285 297 306 308 291 272 265 290 315 153 213 224 240 269 285 248 242 253 247 278 275 282 260 261
330 329 332 335 325 318 321 303 307 282 286 291 294 333 312 306 301 294 293 286 314 312 315 297 322 11 349 154 266 184 215 237 252 243 236 273 288 355 233 260 252 254 258 270
334 332 330 327 319 305 315 301 278 277 299 232 319 309 302 312 311 299 306 323 310 294 288 310 314 319 345 325 327 112 209 237 285 259 254 260 53 33 341 331 271 244 291 255
335 334 332 325 318 299 306 296 286 256 262 281 267 300 304 306 286 279 299 329 319 267 295 280 276 320 331 325 314 326 263 218 229 240 252 264 355 9 309 265 304 345 18 333
333 334 330 323 317 306 284 279 272 268 271 283 280 277 278 275 256 255 312 314 309 287 288 325 340 319 329 289 308 311 292 307 303 239 241 254 355 315 242 284 319 315 309 329
329 331 331 328 320 310 282 291 280 271 268 265 282 282 270 253 251 255 239 279 319 299 316 24 312 310 300 321 296 130 277 231 279 241 268 288 291 283 273 272 272 270 280 301
325 325 324 324 320 314 299 282 286 285 287 299 272 281 267 246 242 237 236 259 225 232 219 302 286 278 313 285 273 291 252 220 219 278 281 271 294 309 347 351 259 235 256 287
323 320 320 317 308 301 293 280 272 263 277 283 326 304 277 264 241 226 225 233 254 329 310 265 245 261 286 287 291 318 295 323 312 307 325 321 5 2 351 2 22 310 292 294
322 320 320 314 307 301 294 279 263 241 225 304 302 305 291 254 222 228 229 236 249 269 283 244 244 252 267 279 298 258 13 19 17 328 345 335 352 347 352 356 7 3 348 345
321 318 316 313 305 300 291 304 251 233 222 274 289 306 295 224 214 219 221 229 231 223 239 247 248 250 265 320 291 345 29 28 34 348 338 355 359 351 353 352 10 20 19 13
320 317 314 311 297 272 211 292 194 200 210 251 278 271 254 220 227 223 198 207 210 211 232 231 255 281 218 257 273 24 19 31 12 18 8 360 1 352 3 25 19 40 44 43
320 319 314 307 286 258 244 249 251 252 208 242 267 271 269 196 214 213 193 193 206 217 247 254 262 243 215 269 288 30 37 23 22 22 25 11 355 13 24 19 19 38 41 42
326 321 321 302 273 243 238 245 242 250 218 256 237 267 293 262 292 216 189 203 215 211 226 245 257 255 230 261 28 37 40 23 24 23 31 17 14 18 30 24 24 31 32 45
337 359 280 213 257 279 294 292 225 198 209 243 258 260 271 296 303 285 193 191 225 221 213 186 269 261 249 219 66 56 56 34 36 26 37 17 18 17 32 38 33 40 37 46
355 325 285 292 302 290 234 244 193 179 231 219 240 246 258 267 278 298 282 260 237 249 162 239 219 219 183 130 104 83 71 49 52 49 50 38 21 24 31 39 46 37 47 38
314 300 300 315 336 234 272 264 247 217 257 177 311 34 293 283 255 275 280 274 281 285 118 241 319 68 129 136 110 92 93 69 59 52 54 41 37 37 43 44 46 40 53 47
310 300 283 297 223 291 252 255 242 332 10 359 337 332 284 200 262 271 305 266 260 322 265 232 79 90 135 132 127 113 98 89 71 61 54 50 45 42 43 49 53 58 53 64
283 298 279 257 207 239 320 346 335 331 317 324 310 297 288 8 312 296 246 256 274 250 218 93 76 69 176 136 139 128 112 100 83 71 61 59 52 50 46 48 53 59 61 59
276 285 256 248 338 313 306 300 307 330 324 318 306 289 233 196 236 217 265 220 221 183 110 21 56 360 214 152 151 163 123 123 110 89 77 70 65 56 57 54 55 58 62 64
259 248 280 312 325 313 310 324 325 346 321 324 302 265 263 223 209 197 228 196 97 60 43 7 25 24 175 168 148 169 153 120 108 101 97 90 87 81 70 61 58 58 58 60
270 281 291 302 313 314 313 314 305 309 311 325 298 291 340 303 259 282 13 41 10 355 14 27 17 8 354 182 183 166 177 142 136 118 109 101 97 94 87 79 73 72 72 72